Year,Month,Day,Hour,Minute,Value (Times are PST for temperature in C)
2018,09,29,00,00,11.20
2018,09,29,00,01,11.20
2018,09,29,00,02,11.20
2018,09,29,00,03,11.30
2018,09,29,00,04,11.30
2018,09,29,00,05,11.30
2018,09,29,00,06,11.30
2018,09,29,00,07,11.40
2018,09,29,00,08,11.40
2018,09,29,00,09,11.40
2018,09,29,00,10,11.40
2018,09,29,00,11,11.30
2018,09,29,00,12,11.30
2018,09,29,00,13,11.40
2018,09,29,00,14,11.30
2018,09,29,00,15,11.30
2018,09,29,00,16,11.40
2018,09,29,00,17,11.30
2018,09,29,00,18,11.30
2018,09,29,00,19,11.30
2018,09,29,00,20,11.40
2018,09,29,00,21,11.40
2018,09,29,00,22,11.40
2018,09,29,00,23,11.40
2018,09,29,00,24,11.30
2018,09,29,00,25,11.20
2018,09,29,00,26,11.10
2018,09,29,00,27,11.00
2018,09,29,00,28,11.00
2018,09,29,00,29,10.90
2018,09,29,00,30,10.80
2018,09,29,00,31,10.70
2018,09,29,00,32,10.60
2018,09,29,00,33,10.60
2018,09,29,00,34,10.50
2018,09,29,00,35,10.50
2018,09,29,00,36,10.40
2018,09,29,00,37,10.40
2018,09,29,00,38,10.30
2018,09,29,00,39,10.30
2018,09,29,00,40,10.30
2018,09,29,00,41,10.20
2018,09,29,00,42,10.20
2018,09,29,00,43,10.20
2018,09,29,00,44,10.20
2018,09,29,00,45,10.10
2018,09,29,00,46,10.10
2018,09,29,00,47,10.10
2018,09,29,00,48,10.10
2018,09,29,00,49,10.00
2018,09,29,00,50,10.00
2018,09,29,00,51,10.00
2018,09,29,00,52,10.00
2018,09,29,00,53,10.00
2018,09,29,00,54,9.90
2018,09,29,00,55,9.90
2018,09,29,00,56,9.90
2018,09,29,00,57,9.90
2018,09,29,00,58,9.90
2018,09,29,00,59,9.90
2018,09,29,01,00,9.90
2018,09,29,01,01,9.90
2018,09,29,01,02,9.90
2018,09,29,01,03,9.80
2018,09,29,01,04,9.80
2018,09,29,01,05,9.80
2018,09,29,01,06,9.80
2018,09,29,01,07,9.80
2018,09,29,01,08,9.80
2018,09,29,01,09,9.80
2018,09,29,01,10,9.80
2018,09,29,01,11,9.70
2018,09,29,01,12,9.70
2018,09,29,01,13,9.70
2018,09,29,01,14,9.70
2018,09,29,01,15,9.70
2018,09,29,01,16,9.70
2018,09,29,01,17,9.70
2018,09,29,01,18,9.70
2018,09,29,01,19,9.70
2018,09,29,01,20,9.70
2018,09,29,01,21,9.60
2018,09,29,01,22,9.60
2018,09,29,01,23,9.60
2018,09,29,01,24,9.60
2018,09,29,01,25,9.60
2018,09,29,01,26,9.60
2018,09,29,01,27,9.60
2018,09,29,01,28,9.60
2018,09,29,01,29,9.60
2018,09,29,01,30,9.60
2018,09,29,01,31,9.60
2018,09,29,01,32,9.60
2018,09,29,01,33,9.60
2018,09,29,01,34,9.70
2018,09,29,01,35,9.70
2018,09,29,01,36,9.70
2018,09,29,01,37,9.80
2018,09,29,01,38,9.80
2018,09,29,01,39,9.80
2018,09,29,01,40,9.90
2018,09,29,01,41,10.00
2018,09,29,01,42,10.00
2018,09,29,01,43,10.00
2018,09,29,01,44,10.00
2018,09,29,01,45,10.00
2018,09,29,01,46,9.90
2018,09,29,01,47,9.90
2018,09,29,01,48,9.80
2018,09,29,01,49,9.80
2018,09,29,01,50,9.80
2018,09,29,01,51,9.70
2018,09,29,01,52,9.70
2018,09,29,01,53,9.70
2018,09,29,01,54,9.60
2018,09,29,01,55,9.50
2018,09,29,01,56,9.50
2018,09,29,01,57,9.50
2018,09,29,01,58,9.50
2018,09,29,01,59,9.50
2018,09,29,02,00,9.50
2018,09,29,02,01,9.50
2018,09,29,02,02,9.40
2018,09,29,02,03,9.40
2018,09,29,02,04,9.40
2018,09,29,02,05,9.40
2018,09,29,02,06,9.40
2018,09,29,02,07,9.30
2018,09,29,02,08,9.30
2018,09,29,02,09,9.30
2018,09,29,02,10,9.20
2018,09,29,02,11,9.20
2018,09,29,02,12,9.20
2018,09,29,02,13,9.20
2018,09,29,02,14,9.20
2018,09,29,02,15,9.20
2018,09,29,02,16,9.20
2018,09,29,02,17,9.10
2018,09,29,02,18,9.10
2018,09,29,02,19,9.10
2018,09,29,02,20,9.10
2018,09,29,02,21,9.10
2018,09,29,02,22,9.10
2018,09,29,02,23,9.10
2018,09,29,02,24,9.10
2018,09,29,02,25,9.10
2018,09,29,02,26,9.10
2018,09,29,02,27,9.10
2018,09,29,02,28,9.10
2018,09,29,02,29,9.00
2018,09,29,02,30,9.00
2018,09,29,02,31,9.00
2018,09,29,02,32,9.10
2018,09,29,02,33,9.10
2018,09,29,02,34,9.20
2018,09,29,02,35,9.20
2018,09,29,02,36,9.30
2018,09,29,02,37,9.30
2018,09,29,02,38,9.30
2018,09,29,02,39,9.30
2018,09,29,02,40,9.30
2018,09,29,02,41,9.30
2018,09,29,02,42,9.20
2018,09,29,02,43,9.20
2018,09,29,02,44,9.20
2018,09,29,02,45,9.10
2018,09,29,02,46,9.10
2018,09,29,02,47,9.10
2018,09,29,02,48,9.00
2018,09,29,02,49,9.00
2018,09,29,02,50,8.90
2018,09,29,02,51,8.90
2018,09,29,02,52,8.90
2018,09,29,02,53,9.00
2018,09,29,02,54,9.00
2018,09,29,02,55,9.10
2018,09,29,02,56,9.10
2018,09,29,02,57,9.10
2018,09,29,02,58,9.10
2018,09,29,02,59,9.10
2018,09,29,03,00,9.10
2018,09,29,03,01,9.10
2018,09,29,03,02,9.00
2018,09,29,03,03,9.00
2018,09,29,03,04,8.90
2018,09,29,03,05,8.90
2018,09,29,03,06,8.90
2018,09,29,03,07,8.80
2018,09,29,03,08,8.80
2018,09,29,03,09,8.80
2018,09,29,03,10,8.80
2018,09,29,03,11,8.80
2018,09,29,03,12,8.90
2018,09,29,03,13,8.90
2018,09,29,03,14,8.80
2018,09,29,03,15,8.80
2018,09,29,03,16,8.80
2018,09,29,03,17,8.80
2018,09,29,03,18,8.70
2018,09,29,03,19,8.70
2018,09,29,03,20,8.80
2018,09,29,03,21,8.80
2018,09,29,03,22,8.80
2018,09,29,03,23,8.90
2018,09,29,03,24,9.00
2018,09,29,03,25,9.00
2018,09,29,03,26,9.10
2018,09,29,03,27,9.30
2018,09,29,03,28,9.30
2018,09,29,03,29,9.40
2018,09,29,03,30,9.30
2018,09,29,03,31,9.30
2018,09,29,03,32,9.20
2018,09,29,03,33,9.10
2018,09,29,03,34,9.10
2018,09,29,03,35,9.00
2018,09,29,03,36,8.90
2018,09,29,03,37,8.90
2018,09,29,03,38,8.80
2018,09,29,03,39,8.80
2018,09,29,03,40,8.80
2018,09,29,03,41,8.70
2018,09,29,03,42,8.70
2018,09,29,03,43,8.70
2018,09,29,03,44,8.70
2018,09,29,03,45,8.60
2018,09,29,03,46,8.60
2018,09,29,03,47,8.60
2018,09,29,03,48,8.60
2018,09,29,03,49,8.60
2018,09,29,03,50,8.60
2018,09,29,03,51,8.60
2018,09,29,03,52,8.70
2018,09,29,03,53,8.70
2018,09,29,03,54,8.80
2018,09,29,03,55,8.80
2018,09,29,03,56,8.80
2018,09,29,03,57,8.90
2018,09,29,03,58,8.90
2018,09,29,03,59,8.90
2018,09,29,04,00,8.80
2018,09,29,04,01,8.80
2018,09,29,04,02,8.70
2018,09,29,04,03,8.70
2018,09,29,04,04,8.70
2018,09,29,04,05,8.70
2018,09,29,04,06,8.70
2018,09,29,04,07,8.90
2018,09,29,04,08,9.00
2018,09,29,04,09,9.20
2018,09,29,04,10,9.40
2018,09,29,04,11,9.60
2018,09,29,04,12,9.70
2018,09,29,04,13,9.70
2018,09,29,04,14,9.60
2018,09,29,04,15,9.50
2018,09,29,04,16,9.40
2018,09,29,04,17,9.30
2018,09,29,04,18,9.20
2018,09,29,04,19,9.10
2018,09,29,04,20,9.10
2018,09,29,04,21,9.10
2018,09,29,04,22,9.10
2018,09,29,04,23,9.10
2018,09,29,04,24,9.20
2018,09,29,04,25,9.30
2018,09,29,04,26,9.30
2018,09,29,04,27,9.40
2018,09,29,04,28,9.30
2018,09,29,04,29,9.30
2018,09,29,04,30,9.20
2018,09,29,04,31,9.20
2018,09,29,04,32,9.10
2018,09,29,04,33,9.10
2018,09,29,04,34,9.00
2018,09,29,04,35,9.00
2018,09,29,04,36,9.10
2018,09,29,04,37,9.10
2018,09,29,04,38,9.10
2018,09,29,04,39,9.10
2018,09,29,04,40,9.10
2018,09,29,04,41,9.00
2018,09,29,04,42,9.00
2018,09,29,04,43,9.00
2018,09,29,04,44,8.90
2018,09,29,04,45,8.90
2018,09,29,04,46,8.90
2018,09,29,04,47,8.90
2018,09,29,04,48,8.90
2018,09,29,04,49,8.90
2018,09,29,04,50,8.90
2018,09,29,04,51,8.80
2018,09,29,04,52,8.80
2018,09,29,04,53,8.70
2018,09,29,04,54,8.70
2018,09,29,04,55,8.60
2018,09,29,04,56,8.60
2018,09,29,04,57,8.60
2018,09,29,04,58,8.60
2018,09,29,04,59,8.70
2018,09,29,05,00,8.70
2018,09,29,05,01,8.70
2018,09,29,05,02,8.70
2018,09,29,05,03,8.70
2018,09,29,05,04,8.70
2018,09,29,05,05,8.70
2018,09,29,05,06,8.70
2018,09,29,05,07,8.70
2018,09,29,05,08,8.70
2018,09,29,05,09,8.70
2018,09,29,05,10,8.80
2018,09,29,05,11,8.90
2018,09,29,05,12,9.00
2018,09,29,05,13,9.00
2018,09,29,05,14,9.10
2018,09,29,05,15,9.20
2018,09,29,05,16,9.30
2018,09,29,05,17,9.40
2018,09,29,05,18,9.40
2018,09,29,05,19,9.40
2018,09,29,05,20,9.50
2018,09,29,05,21,9.50
2018,09,29,05,22,9.50
2018,09,29,05,23,9.50
2018,09,29,05,24,9.40
2018,09,29,05,25,9.30
2018,09,29,05,26,9.20
2018,09,29,05,27,9.20
2018,09,29,05,28,9.20
2018,09,29,05,29,9.40
2018,09,29,05,30,9.50
2018,09,29,05,31,9.70
2018,09,29,05,32,9.80
2018,09,29,05,33,9.80
2018,09,29,05,34,9.80
2018,09,29,05,35,9.90
2018,09,29,05,36,9.90
2018,09,29,05,37,10.00
2018,09,29,05,38,10.00
2018,09,29,05,39,10.00
2018,09,29,05,40,9.80
2018,09,29,05,41,9.70
2018,09,29,05,42,9.60
2018,09,29,05,43,9.50
2018,09,29,05,44,9.50
2018,09,29,05,45,9.40
2018,09,29,05,46,9.40
2018,09,29,05,47,9.50
2018,09,29,05,48,9.40
2018,09,29,05,49,9.40
2018,09,29,05,50,9.40
2018,09,29,05,51,9.50
2018,09,29,05,52,9.60
2018,09,29,05,53,9.70
2018,09,29,05,54,9.60
2018,09,29,05,55,9.60
2018,09,29,05,56,9.50
2018,09,29,05,57,9.50
2018,09,29,05,58,9.40
2018,09,29,05,59,9.40
2018,09,29,06,00,9.40
2018,09,29,06,01,9.40
2018,09,29,06,02,9.40
2018,09,29,06,03,9.40
2018,09,29,06,04,9.40
2018,09,29,06,05,9.30
2018,09,29,06,06,9.40
2018,09,29,06,07,9.40
2018,09,29,06,08,9.50
2018,09,29,06,09,9.50
2018,09,29,06,10,9.50
2018,09,29,06,11,9.50
2018,09,29,06,12,9.50
2018,09,29,06,13,9.40
2018,09,29,06,14,9.30
2018,09,29,06,15,9.30
2018,09,29,06,16,9.30
2018,09,29,06,17,9.20
2018,09,29,06,18,9.20
2018,09,29,06,19,9.10
2018,09,29,06,20,9.10
2018,09,29,06,21,9.00
2018,09,29,06,22,9.00
2018,09,29,06,23,9.00
2018,09,29,06,24,9.00
2018,09,29,06,25,9.00
2018,09,29,06,26,9.00
2018,09,29,06,27,9.10
2018,09,29,06,28,9.10
2018,09,29,06,29,9.10
2018,09,29,06,30,9.20
2018,09,29,06,31,9.20
2018,09,29,06,32,9.20
2018,09,29,06,33,9.20
2018,09,29,06,34,9.20
2018,09,29,06,35,9.20
2018,09,29,06,36,9.20
2018,09,29,06,37,9.20
2018,09,29,06,38,9.20
2018,09,29,06,39,9.20
2018,09,29,06,40,9.20
2018,09,29,06,41,9.20
2018,09,29,06,42,9.20
2018,09,29,06,43,9.20
2018,09,29,06,44,9.20
2018,09,29,06,45,9.20
2018,09,29,06,46,9.20
2018,09,29,06,47,9.10
2018,09,29,06,48,9.20
2018,09,29,06,49,9.20
2018,09,29,06,50,9.20
2018,09,29,06,51,9.20
2018,09,29,06,52,9.20
2018,09,29,06,53,9.20
2018,09,29,06,54,9.20
2018,09,29,06,55,9.30
2018,09,29,06,56,9.20
2018,09,29,06,57,9.20
2018,09,29,06,58,9.20
2018,09,29,06,59,9.20
2018,09,29,07,00,9.20
2018,09,29,07,01,9.20
2018,09,29,07,02,9.20
2018,09,29,07,03,9.20
2018,09,29,07,04,9.20
2018,09,29,07,05,9.20
2018,09,29,07,06,9.10
2018,09,29,07,07,9.20
2018,09,29,07,08,9.20
2018,09,29,07,09,9.30
2018,09,29,07,10,9.30
2018,09,29,07,11,9.30
2018,09,29,07,12,9.30
2018,09,29,07,13,9.30
2018,09,29,07,14,9.30
2018,09,29,07,15,9.30
2018,09,29,07,16,9.30
2018,09,29,07,17,9.40
2018,09,29,07,18,9.40
2018,09,29,07,19,9.40
2018,09,29,07,20,9.40
2018,09,29,07,21,9.50
2018,09,29,07,22,9.50
2018,09,29,07,23,9.50
2018,09,29,07,24,9.50
2018,09,29,07,25,9.60
2018,09,29,07,26,9.60
2018,09,29,07,27,9.60
2018,09,29,07,28,9.60
2018,09,29,07,29,9.60
2018,09,29,07,30,9.60
2018,09,29,07,31,9.60
2018,09,29,07,32,9.60
2018,09,29,07,33,9.70
2018,09,29,07,34,9.70
2018,09,29,07,35,9.70
2018,09,29,07,36,9.80
2018,09,29,07,37,9.80
2018,09,29,07,38,9.90
2018,09,29,07,39,9.90
2018,09,29,07,40,9.90
2018,09,29,07,41,9.90
2018,09,29,07,42,10.00
2018,09,29,07,43,10.00
2018,09,29,07,44,10.00
2018,09,29,07,45,10.10
2018,09,29,07,46,10.20
2018,09,29,07,47,10.20
2018,09,29,07,48,10.30
2018,09,29,07,49,10.30
2018,09,29,07,50,10.40
2018,09,29,07,51,10.40
2018,09,29,07,52,10.40
2018,09,29,07,53,10.40
2018,09,29,07,54,10.40
2018,09,29,07,55,10.30
2018,09,29,07,56,10.30
2018,09,29,07,57,10.20
2018,09,29,07,58,10.20
2018,09,29,07,59,10.20
2018,09,29,08,00,10.20
2018,09,29,08,01,10.20
2018,09,29,08,02,10.30
2018,09,29,08,03,10.30
2018,09,29,08,04,10.30
2018,09,29,08,05,10.40
2018,09,29,08,06,10.40
2018,09,29,08,07,10.40
2018,09,29,08,08,10.50
2018,09,29,08,09,10.60
2018,09,29,08,10,10.60
2018,09,29,08,11,10.70
2018,09,29,08,12,10.70
2018,09,29,08,13,10.70
2018,09,29,08,14,10.80
2018,09,29,08,15,10.90
2018,09,29,08,16,10.90
2018,09,29,08,17,10.90
2018,09,29,08,18,11.00
2018,09,29,08,19,11.00
2018,09,29,08,20,11.10
2018,09,29,08,21,11.20
2018,09,29,08,22,11.30
2018,09,29,08,23,11.40
2018,09,29,08,24,11.50
2018,09,29,08,25,11.60
2018,09,29,08,26,11.70
2018,09,29,08,27,11.80
2018,09,29,08,28,11.90
2018,09,29,08,29,11.90
2018,09,29,08,30,12.00
2018,09,29,08,31,12.10
2018,09,29,08,32,12.20
2018,09,29,08,33,12.30
2018,09,29,08,34,12.40
2018,09,29,08,35,12.50
2018,09,29,08,36,12.60
2018,09,29,08,37,12.60
2018,09,29,08,38,12.70
2018,09,29,08,39,12.70
2018,09,29,08,40,12.80
2018,09,29,08,41,12.90
2018,09,29,08,42,12.90
2018,09,29,08,43,13.00
2018,09,29,08,44,13.10
2018,09,29,08,45,13.10
2018,09,29,08,46,13.20
2018,09,29,08,47,13.30
2018,09,29,08,48,13.30
2018,09,29,08,49,13.40
2018,09,29,08,50,13.50
2018,09,29,08,51,13.50
2018,09,29,08,52,13.60
2018,09,29,08,53,13.70
2018,09,29,08,54,13.80
2018,09,29,08,55,13.90
2018,09,29,08,56,14.00
2018,09,29,08,57,14.00
2018,09,29,08,58,14.10
2018,09,29,08,59,14.20
2018,09,29,09,00,14.20
2018,09,29,09,01,14.20
2018,09,29,09,02,14.30
2018,09,29,09,03,14.30
2018,09,29,09,04,14.40
2018,09,29,09,05,14.30
2018,09,29,09,06,14.30
2018,09,29,09,07,14.30
2018,09,29,09,08,14.30
2018,09,29,09,09,14.30
2018,09,29,09,10,14.30
2018,09,29,09,11,14.30
2018,09,29,09,12,14.30
2018,09,29,09,13,14.30
2018,09,29,09,14,14.30
2018,09,29,09,15,14.30
2018,09,29,09,16,14.30
2018,09,29,09,17,14.20
2018,09,29,09,18,14.20
2018,09,29,09,19,14.20
2018,09,29,09,20,14.20
2018,09,29,09,21,14.20
2018,09,29,09,22,14.20
2018,09,29,09,23,14.30
2018,09,29,09,24,14.30
2018,09,29,09,25,14.40
2018,09,29,09,26,14.40
2018,09,29,09,27,14.50
2018,09,29,09,28,14.50
2018,09,29,09,29,14.60
2018,09,29,09,30,14.60
2018,09,29,09,31,14.70
2018,09,29,09,32,14.70
2018,09,29,09,33,14.80
2018,09,29,09,34,14.80
2018,09,29,09,35,14.90
2018,09,29,09,36,14.90
2018,09,29,09,37,15.00
2018,09,29,09,38,15.10
2018,09,29,09,39,15.20
2018,09,29,09,40,15.20
2018,09,29,09,41,15.30
2018,09,29,09,42,15.40
2018,09,29,09,43,15.50
2018,09,29,09,44,15.60
2018,09,29,09,45,15.70
2018,09,29,09,46,15.80
2018,09,29,09,47,16.00
2018,09,29,09,48,16.10
2018,09,29,09,49,16.20
2018,09,29,09,50,16.30
2018,09,29,09,51,16.40
2018,09,29,09,52,16.50
2018,09,29,09,53,16.60
2018,09,29,09,54,16.70
2018,09,29,09,55,16.80
2018,09,29,09,56,16.80
2018,09,29,09,57,16.90
2018,09,29,09,58,17.00
2018,09,29,09,59,17.10
2018,09,29,10,00,17.10
2018,09,29,10,01,17.20
2018,09,29,10,02,17.30
2018,09,29,10,03,17.30
2018,09,29,10,04,17.40
2018,09,29,10,05,17.50
2018,09,29,10,06,17.50
2018,09,29,10,07,17.60
2018,09,29,10,08,17.60
2018,09,29,10,09,17.70
2018,09,29,10,10,17.80
2018,09,29,10,11,17.80
2018,09,29,10,12,17.90
2018,09,29,10,13,17.90
2018,09,29,10,14,17.90
2018,09,29,10,15,18.00
2018,09,29,10,16,18.00
2018,09,29,10,17,18.10
2018,09,29,10,18,18.10
2018,09,29,10,19,18.20
2018,09,29,10,20,18.20
2018,09,29,10,21,18.30
2018,09,29,10,22,18.30
2018,09,29,10,23,18.40
2018,09,29,10,24,18.40
2018,09,29,10,25,18.50
2018,09,29,10,26,18.50
2018,09,29,10,27,18.50
2018,09,29,10,28,18.60
2018,09,29,10,29,18.60
2018,09,29,10,30,18.60
2018,09,29,10,31,18.70
2018,09,29,10,32,18.70
2018,09,29,10,33,18.80
2018,09,29,10,34,18.80
2018,09,29,10,35,18.90
2018,09,29,10,36,18.90
2018,09,29,10,37,19.00
2018,09,29,10,38,19.00
2018,09,29,10,39,19.00
2018,09,29,10,40,19.10
2018,09,29,10,41,19.10
2018,09,29,10,42,19.10
2018,09,29,10,43,19.20
2018,09,29,10,44,19.20
2018,09,29,10,45,19.20
2018,09,29,10,46,19.20
2018,09,29,10,47,19.20
2018,09,29,10,48,19.30
2018,09,29,10,49,19.30
2018,09,29,10,50,19.30
2018,09,29,10,51,19.40
2018,09,29,10,52,19.30
2018,09,29,10,53,19.30
2018,09,29,10,54,19.30
2018,09,29,10,55,19.30
2018,09,29,10,56,19.30
2018,09,29,10,57,19.30
2018,09,29,10,58,19.40
2018,09,29,10,59,19.40
2018,09,29,11,00,19.40
2018,09,29,11,01,19.40
2018,09,29,11,02,19.50
2018,09,29,11,03,19.40
2018,09,29,11,04,19.40
2018,09,29,11,05,19.40
2018,09,29,11,06,19.40
2018,09,29,11,07,19.30
2018,09,29,11,08,19.30
2018,09,29,11,09,19.30
2018,09,29,11,10,19.20
2018,09,29,11,11,19.20
2018,09,29,11,12,19.20
2018,09,29,11,13,19.20
2018,09,29,11,14,19.30
2018,09,29,11,15,19.30
2018,09,29,11,16,19.30
2018,09,29,11,17,19.40
2018,09,29,11,18,19.50
2018,09,29,11,19,19.50
2018,09,29,11,20,19.50
2018,09,29,11,21,19.50
2018,09,29,11,22,19.50
2018,09,29,11,23,19.50
2018,09,29,11,24,19.50
2018,09,29,11,25,19.60
2018,09,29,11,26,19.60
2018,09,29,11,27,19.60
2018,09,29,11,28,19.70
2018,09,29,11,29,19.70
2018,09,29,11,30,19.70
2018,09,29,11,31,19.70
2018,09,29,11,32,19.70
2018,09,29,11,33,19.70
2018,09,29,11,34,19.70
2018,09,29,11,35,19.60
2018,09,29,11,36,19.60
2018,09,29,11,37,19.60
2018,09,29,11,38,19.60
2018,09,29,11,39,19.60
2018,09,29,11,40,19.60
2018,09,29,11,41,19.60
2018,09,29,11,42,19.60
2018,09,29,11,43,19.60
2018,09,29,11,44,19.60
2018,09,29,11,45,19.70
2018,09,29,11,46,19.70
2018,09,29,11,47,19.80
2018,09,29,11,48,19.80
2018,09,29,11,49,19.80
2018,09,29,11,50,19.90
2018,09,29,11,51,19.90
2018,09,29,11,52,19.90
2018,09,29,11,53,19.90
2018,09,29,11,54,19.90
2018,09,29,11,55,20.00
2018,09,29,11,56,20.00
2018,09,29,11,57,20.00
2018,09,29,11,58,20.00
2018,09,29,11,59,20.00
2018,09,29,12,00,20.00
2018,09,29,12,01,20.00
2018,09,29,12,02,19.90
2018,09,29,12,03,19.90
2018,09,29,12,04,19.90
2018,09,29,12,05,19.90
2018,09,29,12,06,19.90
2018,09,29,12,07,19.90
2018,09,29,12,08,19.90
2018,09,29,12,09,20.00
2018,09,29,12,10,20.00
2018,09,29,12,11,20.00
2018,09,29,12,12,19.90
2018,09,29,12,13,19.90
2018,09,29,12,14,19.90
2018,09,29,12,15,19.90
2018,09,29,12,16,19.80
2018,09,29,12,17,19.80
2018,09,29,12,18,19.80
2018,09,29,12,19,19.80
2018,09,29,12,20,19.80
2018,09,29,12,21,19.80
2018,09,29,12,22,19.80
2018,09,29,12,23,19.70
2018,09,29,12,24,19.70
2018,09,29,12,25,19.70
2018,09,29,12,26,19.80
2018,09,29,12,27,19.80
2018,09,29,12,28,19.80
2018,09,29,12,29,19.80
2018,09,29,12,30,19.80
2018,09,29,12,31,19.80
2018,09,29,12,32,19.80
2018,09,29,12,33,19.80
2018,09,29,12,34,19.80
2018,09,29,12,35,19.90
2018,09,29,12,36,19.90
2018,09,29,12,37,19.90
2018,09,29,12,38,19.90
2018,09,29,12,39,19.90
2018,09,29,12,40,20.00
2018,09,29,12,41,20.00
2018,09,29,12,42,20.00
2018,09,29,12,43,20.10
2018,09,29,12,44,20.10
2018,09,29,12,45,20.10
2018,09,29,12,46,20.10
2018,09,29,12,47,20.10
2018,09,29,12,48,20.10
2018,09,29,12,49,20.10
2018,09,29,12,50,20.10
2018,09,29,12,51,20.20
2018,09,29,12,52,20.20
2018,09,29,12,53,20.20
2018,09,29,12,54,20.20
2018,09,29,12,55,20.30
2018,09,29,12,56,20.30
2018,09,29,12,57,20.30
2018,09,29,12,58,20.30
2018,09,29,12,59,20.30
2018,09,29,13,00,20.40
2018,09,29,13,01,20.40
2018,09,29,13,02,20.50
2018,09,29,13,03,20.60
2018,09,29,13,04,20.60
2018,09,29,13,05,20.70
2018,09,29,13,06,20.70
2018,09,29,13,07,20.80
2018,09,29,13,08,20.80
2018,09,29,13,09,20.80
2018,09,29,13,10,20.90
2018,09,29,13,11,20.90
2018,09,29,13,12,20.90
2018,09,29,13,13,20.90
2018,09,29,13,14,20.90
2018,09,29,13,15,20.80
2018,09,29,13,16,20.80
2018,09,29,13,17,20.80
2018,09,29,13,18,20.70
2018,09,29,13,19,20.70
2018,09,29,13,20,20.60
2018,09,29,13,21,20.60
2018,09,29,13,22,20.60
2018,09,29,13,23,20.60
2018,09,29,13,24,20.60
2018,09,29,13,25,20.60
2018,09,29,13,26,20.60
2018,09,29,13,27,20.70
2018,09,29,13,28,20.70
2018,09,29,13,29,20.80
2018,09,29,13,30,20.90
2018,09,29,13,31,21.00
2018,09,29,13,32,21.00
2018,09,29,13,33,21.10
2018,09,29,13,34,21.20
2018,09,29,13,35,21.30
2018,09,29,13,36,21.40
2018,09,29,13,37,21.50
2018,09,29,13,38,21.50
2018,09,29,13,39,21.50
2018,09,29,13,40,21.50
2018,09,29,13,41,21.40
2018,09,29,13,42,21.30
2018,09,29,13,43,21.20
2018,09,29,13,44,21.10
2018,09,29,13,45,21.00
2018,09,29,13,46,20.90
2018,09,29,13,47,20.80
2018,09,29,13,48,20.70
2018,09,29,13,49,20.50
2018,09,29,13,50,20.40
2018,09,29,13,51,20.30
2018,09,29,13,52,20.10
2018,09,29,13,53,20.00
2018,09,29,13,54,19.90
2018,09,29,13,55,19.80
2018,09,29,13,56,19.70
2018,09,29,13,57,19.70
2018,09,29,13,58,19.70
2018,09,29,13,59,19.70
2018,09,29,14,00,19.60
2018,09,29,14,01,19.50
2018,09,29,14,02,19.40
2018,09,29,14,03,19.20
2018,09,29,14,04,19.10
2018,09,29,14,05,19.00
2018,09,29,14,06,18.90
2018,09,29,14,07,18.80
2018,09,29,14,08,18.80
2018,09,29,14,09,18.70
2018,09,29,14,10,18.70
2018,09,29,14,11,18.70
2018,09,29,14,12,18.70
2018,09,29,14,13,18.70
2018,09,29,14,14,18.80
2018,09,29,14,15,18.90
2018,09,29,14,16,19.00
2018,09,29,14,17,19.10
2018,09,29,14,18,19.10
2018,09,29,14,19,19.10
2018,09,29,14,20,19.10
2018,09,29,14,21,19.10
2018,09,29,14,22,19.00
2018,09,29,14,23,18.90
2018,09,29,14,24,18.80
2018,09,29,14,25,18.60
2018,09,29,14,26,18.50
2018,09,29,14,27,18.40
2018,09,29,14,28,18.30
2018,09,29,14,29,18.30
2018,09,29,14,30,18.20
2018,09,29,14,31,18.10
2018,09,29,14,32,18.10
2018,09,29,14,33,18.00
2018,09,29,14,34,18.00
2018,09,29,14,35,18.00
2018,09,29,14,36,18.00
2018,09,29,14,37,18.00
2018,09,29,14,38,18.00
2018,09,29,14,39,17.90
2018,09,29,14,40,17.80
2018,09,29,14,41,17.80
2018,09,29,14,42,17.70
2018,09,29,14,43,17.70
2018,09,29,14,44,17.60
2018,09,29,14,45,17.60
2018,09,29,14,46,17.60
2018,09,29,14,47,17.60
2018,09,29,14,48,17.50
2018,09,29,14,49,17.50
2018,09,29,14,50,17.50
2018,09,29,14,51,17.40
2018,09,29,14,52,17.40
2018,09,29,14,53,17.40
2018,09,29,14,54,17.40
2018,09,29,14,55,17.50
2018,09,29,14,56,17.50
2018,09,29,14,57,17.50
2018,09,29,14,58,17.40
2018,09,29,14,59,17.40
2018,09,29,15,00,17.30
2018,09,29,15,01,17.20
2018,09,29,15,02,17.20
2018,09,29,15,03,17.10
2018,09,29,15,04,17.10
2018,09,29,15,05,17.00
2018,09,29,15,06,17.00
2018,09,29,15,07,17.00
2018,09,29,15,08,17.00
2018,09,29,15,09,17.10
2018,09,29,15,10,17.10
2018,09,29,15,11,17.20
2018,09,29,15,12,17.30
2018,09,29,15,13,17.30
2018,09,29,15,14,17.40
2018,09,29,15,15,17.50
2018,09,29,15,16,17.50
2018,09,29,15,17,17.60
2018,09,29,15,18,17.60
2018,09,29,15,19,17.70
2018,09,29,15,20,17.70
2018,09,29,15,21,17.70
2018,09,29,15,22,17.70
2018,09,29,15,23,17.80
2018,09,29,15,24,17.80
2018,09,29,15,25,17.80
2018,09,29,15,26,17.80
2018,09,29,15,27,17.80
2018,09,29,15,28,17.80
2018,09,29,15,29,17.80
2018,09,29,15,30,17.80
2018,09,29,15,31,17.70
2018,09,29,15,32,17.70
2018,09,29,15,33,17.60
2018,09,29,15,34,17.50
2018,09,29,15,35,17.50
2018,09,29,15,36,17.40
2018,09,29,15,37,17.30
2018,09,29,15,38,17.20
2018,09,29,15,39,17.00
2018,09,29,15,40,16.90
2018,09,29,15,41,16.70
2018,09,29,15,42,16.50
2018,09,29,15,43,16.30
2018,09,29,15,44,16.20
2018,09,29,15,45,16.10
2018,09,29,15,46,16.00
2018,09,29,15,47,15.90
2018,09,29,15,48,15.80
2018,09,29,15,49,15.80
2018,09,29,15,50,15.70
2018,09,29,15,51,15.60
2018,09,29,15,52,15.60
2018,09,29,15,53,15.50
2018,09,29,15,54,15.40
2018,09,29,15,55,15.40
2018,09,29,15,56,15.40
2018,09,29,15,57,15.40
2018,09,29,15,58,15.40
2018,09,29,15,59,15.30
2018,09,29,16,00,15.30
2018,09,29,16,01,15.40
2018,09,29,16,02,15.40
2018,09,29,16,03,15.40
2018,09,29,16,04,15.40
2018,09,29,16,05,15.40
2018,09,29,16,06,15.40
2018,09,29,16,07,15.40
2018,09,29,16,08,15.40
2018,09,29,16,09,15.40
2018,09,29,16,10,15.30
2018,09,29,16,11,15.30
2018,09,29,16,12,15.30
2018,09,29,16,13,15.30
2018,09,29,16,14,15.30
2018,09,29,16,15,15.30
2018,09,29,16,16,15.30
2018,09,29,16,17,15.30
2018,09,29,16,18,15.30
2018,09,29,16,19,15.30
2018,09,29,16,20,15.30
2018,09,29,16,21,15.30
2018,09,29,16,22,15.40
2018,09,29,16,23,15.40
2018,09,29,16,24,15.40
2018,09,29,16,25,15.40
2018,09,29,16,26,15.40
2018,09,29,16,27,15.40
2018,09,29,16,28,15.30
2018,09,29,16,29,15.30
2018,09,29,16,30,15.30
2018,09,29,16,31,15.30
2018,09,29,16,32,15.30
2018,09,29,16,33,15.30
2018,09,29,16,34,15.30
2018,09,29,16,35,15.30
2018,09,29,16,36,15.30
2018,09,29,16,37,15.30
2018,09,29,16,38,15.30
2018,09,29,16,39,15.20
2018,09,29,16,40,15.20
2018,09,29,16,41,15.20
2018,09,29,16,42,15.10
2018,09,29,16,43,15.10
2018,09,29,16,44,15.10
2018,09,29,16,45,15.00
2018,09,29,16,46,15.00
2018,09,29,16,47,15.00
2018,09,29,16,48,14.90
2018,09,29,16,49,14.90
2018,09,29,16,50,14.90
2018,09,29,16,51,14.90
2018,09,29,16,52,14.90
2018,09,29,16,53,14.90
2018,09,29,16,54,14.90
2018,09,29,16,55,14.90
2018,09,29,16,56,14.90
2018,09,29,16,57,14.90
2018,09,29,16,58,14.90
2018,09,29,16,59,14.90
2018,09,29,17,00,14.90
2018,09,29,17,01,14.90
2018,09,29,17,02,14.90
2018,09,29,17,03,14.90
2018,09,29,17,04,14.90
2018,09,29,17,05,14.90
2018,09,29,17,06,14.90
2018,09,29,17,07,14.90
2018,09,29,17,08,14.90
2018,09,29,17,09,14.90
2018,09,29,17,10,14.90
2018,09,29,17,11,15.00
2018,09,29,17,12,15.00
2018,09,29,17,13,15.00
2018,09,29,17,14,15.00
2018,09,29,17,15,15.00
2018,09,29,17,16,15.10
2018,09,29,17,17,15.10
2018,09,29,17,18,15.10
2018,09,29,17,19,15.10
2018,09,29,17,20,15.10
2018,09,29,17,21,15.10
2018,09,29,17,22,15.20
2018,09,29,17,23,15.20
2018,09,29,17,24,15.20
2018,09,29,17,25,15.30
2018,09,29,17,26,15.30
2018,09,29,17,27,15.30
2018,09,29,17,28,15.30
2018,09,29,17,29,15.30
2018,09,29,17,30,15.30
2018,09,29,17,31,15.30
2018,09,29,17,32,15.40
2018,09,29,17,33,15.40
2018,09,29,17,34,15.40
2018,09,29,17,35,15.40
2018,09,29,17,36,15.40